Regional Weather Roundup
Issued by NWS

Home | Current Version | Previous Version | Text Only | Print | Product List | Glossary On
Versions: 1 2 3 4 5 6 7 8 9 10 11 12 13 14 15 16 17 18 19 20 21 22 23 24 25 26 27 28 29 30 31 32 33 34 35 36 37 38 39 40 41 42 43 44 45 46 47 48 49 50
000
ASUS45 KBOI 291710
RWRID
WEATHER ROUNDUP FOR IDAHO
NATIONAL WEATHER SERVICE BOISE ID
1100 AM MDT SUN MAR 29 2015

NOTE: "FAIR" INDICATES FEW OR NO CLOUDS BELOW 12000 FEET
WITH NO SIGNIFICANT WEATHER AND/OR OBSTRUCTIONS TO VISIBILITY

IDZ012-014-291800-
SOUTHWEST IDAHO


CITY           SKY/WX    TMP DP  RH WIND       PRES   REMARKS
BOISE          SUNNY     53  31  42 S7        30.33R
CALDWELL       SUNNY     48  28  46 CALM      30.35F
MOUNTAIN HOME  SUNNY     50  29  44 E3        30.34R
$$

IDZ016-017-291800-
SOUTHCENTRAL IDAHO


CITY           SKY/WX    TMP DP  RH WIND       PRES   REMARKS
BURLEY         SUNNY     49  24  37 E3        30.32S
JEROME         SUNNY     49  24  37 SW5       30.34R
TWIN FALLS     SUNNY     54  26  34 N5        30.32S
$$

IDZ019>023-291800-
SOUTHEAST IDAHO


CITY           SKY/WX    TMP DP  RH WIND       PRES   REMARKS
IDAHO FALLS    MOSUNNY   47  22  37 CALM      30.34F
POCATELLO      SUNNY     48  23  37 VRB3      30.34S
REXBURG        PTSUNNY   43  24  47 E5        30.35S
$$

IDZ006-010-011-018-031-032-291800-
CENTRAL IDAHO MOUNTAINS


CITY           SKY/WX    TMP DP  RH WIND       PRES   REMARKS
MCCALL         MOSUNNY   42  28  57 CALM      30.31S
HAILEY         MOSUNNY   48  19  32 W6        30.34S
STANLEY          N/A     37  22  54 CALM      30.36S
SALMON         MOSUNNY   39  25  56 N3        30.34F
CHALLIS        SUNNY     44  22  41 CALM      30.33F
$$

IDZ002-004-006-007-026-291800-
NORTHERN IDAHO


CITY           SKY/WX    TMP DP  RH WIND       PRES   REMARKS
LEWISTON       PTSUNNY   51  39  63 E9        30.28F
LOWELL           N/A     49  38  65 N3        30.36F
COEUR D`ALENE  SUNNY     46  36  66 S10       30.27S
MULLAN PASS    CLOUDY    33  28  81 VRB7      30.25R WCI  27
$$


USA.gov is the U.S. government's official web portal to all federal, state and local government web resources and services.